GW7715 Weather Reports


Display with metric or nautical units.
time (UTC)temp
F
wind
direction
speed
MPH
gust
MPH
rain 1hr
in
rain 24hr
in
rain mn
in
humidity
%
barometer
mb
20260906120357 79 316 9.0 15.0 0.00 0.00 0.00 19 1012.2
20260906115858 78 308 10.0 13.0 0.00 0.00 0.00 21 1012.5
20260906115357 79 310 6.0 11.0 0.00 0.00 0.00 21 1012.5
20260906114857 78 306 9.0 10.0 0.00 0.00 0.00 24 1012.5
20260906114357 78 290 9.0 11.0 0.00 0.00 0.00 25 1012.9
20260906113857 78 286 6.0 7.0 0.00 0.00 0.00 26 1012.5
20260906113357 78 316 5.0 8.0 0.00 0.00 0.00 25 1012.5
20260906112857 78 289 9.0 10.0 0.00 0.00 0.00 25 1012.2
20260906112358 78 260 8.0 9.0 0.00 0.00 0.00 25 1012.5
20260906111857 78 266 11.0 13.0 0.00 0.00 0.00 25 1012.2
20260906111357 78 293 12.0 17.0 0.00 0.00 0.00 22 1012.2
20260906110859 78 314 7.0 10.0 0.00 0.00 0.00 22 1012.5
20260906110357 78 273 7.0 9.0 0.00 0.00 0.00 23 1012.5
20260906105858 79 332 3.0 5.0 0.00 0.00 0.00 22 1012.5
20260906105357 78 339 4.0 8.0 0.00 0.00 0.00 22 1012.5
20260906104857 78 321 7.0 9.0 0.00 0.00 0.00 22 1012.5
20260906104358 78 281 9.0 10.0 0.00 0.00 0.00 22 1012.5
20260906103858 77 287 12.0 14.0 0.00 0.00 0.00 24 1012.5
20260906103357 78 37 8.0 10.0 0.00 0.00 0.00 22 1012.5
20260906102857 78 278 4.0 6.0 0.00 0.00 0.00 23 1012.9
20260906102357 78 314 8.0 10.0 0.00 0.00 0.00 23 1012.5
20260906101857 77 266 7.0 9.0 0.00 0.00 0.00 22 1012.5
20260906101358 77 250 3.0 3.0 0.00 0.00 0.00 23 1012.9
20260906100858 76 293 6.0 7.0 0.00 0.00 0.00 21 1012.5
20260906100358 76 230 2.0 2.0 0.00 0.00 0.00 23 1012.9
20260906095858 77 289 7.0 9.0 0.00 0.00 0.00 23 1012.5
20260906095358 77 282 5.0 6.0 0.00 0.00 0.00 23 1012.5
20260906094856 77 302 7.0 8.0 0.00 0.00 0.00 23 1012.5
20260906094358 77 302 9.0 11.0 0.00 0.00 0.00 24 1012.9
20260906093857 77 335 3.0 3.0 0.00 0.00 0.00 20 1012.9
20260906093357 76 253 2.0 2.0 0.00 0.00 0.00 21 1012.9
20260906092857 76 306 3.0 3.0 0.00 0.00 0.00 22 1012.9
20260906092358 76 287 3.0 5.0 0.00 0.00 0.00 20 1012.9
20260906091858 76 312 11.0 13.0 0.00 0.00 0.00 20 1012.9
20260906091358 76 277 12.0 14.0 0.00 0.00 0.00 21 1012.5
20260906090857 76 252 9.0 13.0 0.00 0.00 0.00 19 1012.9
20260906090357 76 275 9.0 10.0 0.00 0.00 0.00 20 1012.9
20260906085857 77 257 3.0 3.0 0.00 0.00 0.00 21 1012.5
20260906085357 76 241 5.0 5.0 0.00 0.00 0.00 20 1012.9
20260906084857 76 278 6.0 8.0 0.00 0.00 0.00 22 1012.9
20260906084400 75 255 10.0 14.0 0.00 0.00 0.00 23 1012.9
20260906083857 75 256 8.0 10.0 0.00 0.00 0.00 23 1012.9
20260906083358 75 232 5.0 5.0 0.00 0.00 0.00 24 1012.9
20260906082858 75 237 5.0 6.0 0.00 0.00 0.00 21 1012.9
20260906082357 75 216 5.0 6.0 0.00 0.00 0.00 22 1012.9
20260906081857 75 257 6.0 8.0 0.00 0.00 0.00 22 1012.9
20260906081357 76 266 2.0 2.0 0.00 0.00 0.00 28 1012.5
20260906080857 75 193 3.0 5.0 0.00 0.00 0.00 27 1012.9
20260906080357 75 207 5.0 7.0 0.00 0.00 0.00 24 1012.9
20260906075857 75 263 2.0 2.0 0.00 0.00 0.00 24 1012.9
20260906075357 75 156 2.0 2.0 0.00 0.00 0.00 25 1012.9
20260906074857 75 211 4.0 3.0 0.00 0.00 0.00 23 1012.9
20260906074357 75 193 2.0 2.0 0.00 0.00 0.00 23 1012.9
20260906073858 74 247 3.0 2.0 0.00 0.00 0.00 23 1012.9
20260906073358 75 270 3.0 3.0 0.00 0.00 0.00 24 1012.9
20260906072857 75 236 4.0 3.0 0.00 0.00 0.00 25 1012.9
20260906072357 74 73 1.0 0.0 0.00 0.00 0.00 24 1012.9
20260906071857 73 260 5.0 7.0 0.00 0.00 0.00 24 1012.9
20260906071357 73 260 5.0 7.0 0.00 0.00 0.00 24 1012.9
20260906070858 73 260 5.0 7.0 0.00 0.00 0.00 24 1012.9
20260906070357 73 260 5.0 7.0 0.00 0.00 0.00 24 1012.9
20260906065857 72 300 3.0 3.0 0.00 0.00 0.00 24 1013.2
20260906065357 73 214 6.0 6.0 0.00 0.00 0.00 22 1012.9
20260906064857 72 209 1.0 1.0 0.00 0.00 0.00 24 1013.2
20260906064357 72 236 2.0 3.0 0.00 0.00 0.00 25 1012.9
20260906063858 71 216 2.0 2.0 0.00 0.00 0.00 22 1013.2
20260906063357 70 262 6.0 7.0 0.00 0.00 0.00 24 1012.9
20260906062857 70 271 5.0 6.0 0.00 0.00 0.00 25 1012.9
20260906062358 70 257 2.0 2.0 0.00 0.00 0.00 26 1013.2
20260906061858 70 286 3.0 3.0 0.00 0.00 0.00 29 1012.9
20260906061357 70 236 4.0 6.0 0.00 0.00 0.00 27 1012.9
20260906060857 70 181 5.0 6.0 0.00 0.00 0.00 26 1012.9
20260906060357 70 261 5.0 7.0 0.00 0.00 0.00 26 1012.9
20260906055857 70 297 4.0 5.0 0.00 0.00 0.00 28 1012.9
20260906055358 69 253 2.0 2.0 0.00 0.00 0.00 27 1012.9
20260906054857 69 257 3.0 3.0 0.00 0.00 0.00 28 1012.9
20260906054357 69 262 1.0 1.0 0.00 0.00 0.00 27 1012.9
20260906053857 68 273 1.0 2.0 0.00 0.00 0.00 28 1012.9
20260906053357 68 289 1.0 1.0 0.00 0.00 0.00 30 1012.9
20260906052858 67 299 2.0 2.0 0.00 0.00 0.00 30 1012.9
20260906052357 67 272 2.0 2.0 0.00 0.00 0.00 30 1012.9
20260906051857 66 320 1.0 1.0 0.00 0.00 0.00 33 1012.9
20260906051357 66 314 1.0 1.0 0.00 0.00 0.00 32 1012.9
20260906050857 67 316 1.0 1.0 0.00 0.00 0.00 31 1012.9
20260906050358 68 356 1.0 1.0 0.00 0.00 0.00 30 1012.9
20260906045857 66 107 1.0 1.0 0.00 0.00 0.00 30 1012.9
20260906045357 66 125 4.0 3.0 0.00 0.00 0.00 32 1012.5
20260906044858 64 220 1.0 1.0 0.00 0.00 0.00 33 1012.5
20260906044357 64 255 1.0 1.0 0.00 0.00 0.00 35 1012.9
20260906043857 64 239 2.0 3.0 0.00 0.00 0.00 35 1012.9
20260906043358 63 236 0.0 0.0 0.00 0.00 0.00 37 1012.9
20260906042857 62 233 3.0 3.0 0.00 0.00 0.00 38 1012.9
20260906042358 62 263 6.0 7.0 0.00 0.00 0.00 37 1012.9
20260906041857 62 252 4.0 5.0 0.00 0.00 0.00 40 1012.9
20260906041357 61 223 1.0 1.0 0.00 0.00 0.00 42 1012.5
20260906040857 61 223 1.0 1.0 0.00 0.00 0.00 43 1012.5
20260906040358 60 190 0.0 0.0 0.00 0.00 0.00 45 1012.5
20260906035857 59 194 1.0 1.0 0.00 0.00 0.00 47 1012.5
20260906035357 59 205 0.0 0.0 0.00 0.00 0.00 49 1012.2
20260906034857 58 182 1.0 1.0 0.00 0.00 0.00 51 1012.5
20260906034357 57 173 0.0 0.0 0.00 0.00 0.00 55 1012.5
20260906033857 55 170 0.0 0.0 0.00 0.00 0.00 59 1012.9
20260906033357 55 170 1.0 0.0 0.00 0.00 0.00 60 1012.5
20260906032857 54 148 0.0 0.0 0.00 0.00 0.00 61 1012.5
20260906032357 54 148 0.0 0.0 0.00 0.00 0.00 61 1012.5
20260906031858 54 148 1.0 0.0 0.00 0.00 0.00 61 1012.5
20260906031358 54 147 1.0 1.0 0.00 0.00 0.00 61 1012.5
20260906030857 54 151 1.0 1.0 0.00 0.00 0.00 62 1012.5
20260906030357 54 167 1.0 1.0 0.00 0.00 0.00 63 1012.5
20260906025857 53 166 1.0 1.0 0.00 0.00 0.00 65 1012.5
20260906025357 54 126 1.0 1.0 0.00 0.00 0.00 68 1012.2
20260906024857 54 126 1.0 1.0 0.00 0.00 0.00 69 1012.5
20260906024357 54 126 1.0 1.0 0.00 0.00 0.00 70 1012.5
20260906023858 54 194 1.0 1.0 0.00 0.00 0.00 70 1012.5
20260906023358 55 241 1.0 1.0 0.00 0.00 0.00 69 1012.5
20260906022857 56 237 2.0 2.0 0.00 0.00 0.00 68 1012.5
20260906022358 57 253 4.0 5.0 0.00 0.00 0.00 68 1012.5
20260906021859 56 254 3.0 3.0 0.00 0.00 0.00 68 1012.5
20260906021357 55 229 3.0 2.0 0.00 0.00 0.00 72 1012.2
20260906020857 55 254 0.0 0.0 0.00 0.00 0.00 73 1012.2
20260906020357 55 254 0.0 0.0 0.00 0.00 0.00 73 1012.5
20260906015857 56 225 1.0 1.0 0.00 0.00 0.00 73 1012.5
20260906015357 56 239 1.0 1.0 0.00 0.00 0.00 73 1012.5
20260906014857 55 232 1.0 1.0 0.00 0.00 0.00 72 1012.2
20260906014357 56 227 1.0 1.0 0.00 0.00 0.00 71 1012.2
20260906013858 56 236 0.0 0.0 0.00 0.00 0.00 72 1012.2
20260906013358 56 231 3.0 3.0 0.00 0.00 0.00 74 1012.5
20260906012857 56 238 3.0 3.0 0.00 0.00 0.00 74 1012.5
20260906012357 55 132 0.0 0.0 0.00 0.00 0.00 73 1012.2
20260906011858 55 132 0.0 0.0 0.00 0.00 0.00 73 1012.2
20260906011357 54 129 1.0 0.0 0.00 0.00 0.00 72 1012.5
20260906010857 54 128 0.0 0.0 0.00 0.00 0.00 72 1012.5
20260906010357 55 128 1.0 1.0 0.00 0.00 0.00 65 1012.5
20260906005858 55 136 1.0 1.0 0.00 0.00 0.00 65 1012.2
20260906005358 55 136 1.0 0.0 0.00 0.00 0.00 66 1012.2
20260906004858 55 144 2.0 2.0 0.00 0.00 0.00 65 1012.2
20260906004357 55 210 1.0 0.0 0.00 0.00 0.00 66 1012.5
20260906003857 55 210 1.0 0.0 0.00 0.00 0.00 67 1012.5
20260906003358 55 210 0.0 0.0 0.00 0.00 0.00 67 1012.5
20260906002857 56 210 1.0 0.0 0.00 0.00 0.00 65 1012.5
20260906002358 57 236 0.0 0.0 0.00 0.00 0.00 64 1012.5
20260906001857 57 229 1.0 1.0 0.00 0.00 0.00 66 1012.5
20260906001357 56 218 1.0 1.0 0.00 0.00 0.00 65 1012.9
20260906000858 56 206 0.0 0.0 0.00 0.00 0.00 63 1012.5
20260906000358 56 208 1.0 1.0 0.00 0.00 0.00 60 1012.2
20260905235857 57 230 0.0 0.0 0.00 0.00 0.00 59 1012.5
20260905235359 57 230 1.0 1.0 0.00 0.00 0.00 59 1012.5
20260905234857 56 224 1.0 0.0 0.00 0.00 0.00 60 1012.5
20260905234357 56 231 0.0 0.0 0.00 0.00 0.00 59 1012.5
20260905233858 57 232 0.0 0.0 0.00 0.00 0.00 59 1012.5
20260905233357 57 231 0.0 0.0 0.00 0.00 0.00 58 1012.9
20260905232858 57 231 0.0 0.0 0.00 0.00 0.00 58 1012.5
20260905232357 57 232 1.0 0.0 0.00 0.00 0.00 58 1012.5
20260905231857 57 233 0.0 0.0 0.00 0.00 0.00 59 1012.5
20260905231357 57 233 0.0 0.0 0.00 0.00 0.00 58 1012.5
20260905230858 57 233 0.0 0.0 0.00 0.00 0.00 58 1012.5
20260905230357 57 232 1.0 1.0 0.00 0.00 0.00 58 1012.5
20260905225857 57 228 1.0 1.0 0.00 0.00 0.00 60 1012.5
20260905225357 57 228 0.0 0.0 0.00 0.00 0.00 60 1012.9
20260905224857 57 230 1.0 2.0 0.00 0.00 0.00 63 1012.9
20260905224357 55 167 1.0 1.0 0.00 0.00 0.00 67 1012.9
20260905223858 55 126 2.0 2.0 0.00 0.00 0.00 68 1012.5
20260905223357 56 127 1.0 1.0 0.00 0.00 0.00 67 1012.9
20260905222858 56 127 1.0 1.0 0.00 0.00 0.00 68 1012.9
20260905222357 55 127 0.0 0.0 0.00 0.00 0.00 69 1012.9
20260905221858 55 127 1.0 1.0 0.00 0.00 0.00 71 1012.9
20260905221357 55 130 0.0 0.0 0.00 0.00 0.00 73 1012.9
20260905220857 56 163 1.0 1.0 0.00 0.00 0.00 72 1013.2
20260905220357 56 193 0.0 0.0 0.00 0.00 0.00 72 1012.9
20260905215857 56 143 0.0 0.0 0.00 0.00 0.00 77 1012.9
20260905215358 56 143 0.0 0.0 0.00 0.00 0.00 77 1013.2
20260905214859 56 145 0.0 0.0 0.00 0.00 0.00 80 1012.9
20260905214357 56 118 0.0 0.0 0.00 0.00 0.00 82 1013.2
20260905213857 57 118 1.0 1.0 0.00 0.00 0.00 80 1012.9
20260905213357 56 118 1.0 1.0 0.00 0.00 0.00 82 1012.9
20260905212857 57 120 0.0 0.0 0.00 0.00 0.00 82 1013.2
20260905212358 56 120 0.0 0.0 0.00 0.00 0.00 82 1012.9
20260905211856 57 120 0.0 0.0 0.00 0.00 0.00 83 1012.9
20260905211357 56 120 2.0 2.0 0.00 0.00 0.00 82 1013.2
20260905210858 57 120 0.0 0.0 0.00 0.00 0.00 81 1013.2
20260905210358 56 121 1.0 1.0 0.00 0.00 0.00 83 1013.2
20260905205857 57 115 2.0 2.0 0.00 0.00 0.00 75 1013.2
20260905205357 57 123 1.0 1.0 0.00 0.00 0.00 79 1013.2
20260905204857 57 123 0.0 0.0 0.00 0.00 0.00 80 1013.5
20260905204357 57 123 0.0 0.0 0.00 0.00 0.00 80 1013.5
20260905203857 57 123 0.0 0.0 0.00 0.00 0.00 80 1013.5
20260905203358 57 123 0.0 0.0 0.00 0.00 0.00 77 1013.5
20260905202857 58 125 1.0 0.0 0.00 0.00 0.00 75 1013.5
20260905202357 58 125 0.0 0.0 0.00 0.00 0.00 78 1013.5
20260905201858 59 125 3.0 3.0 0.00 0.00 0.00 76 1013.5
20260905201357 59 124 1.0 1.0 0.00 0.00 0.00 77 1013.5
20260905200857 59 126 1.0 1.0 0.00 0.00 0.00 72 1013.5
20260905200357 59 126 1.0 0.0 0.00 0.00 0.00 77 1013.5
20260905195426 60 126 1.0 0.0 0.00 0.00 0.00 72 1013.5
20260905194857 60 148 0.0 0.0 0.00 0.00 0.00 73 1013.5
20260905194357 61 213 0.0 0.0 0.00 0.00 0.00 73 1013.5
20260905193858 60 176 1.0 1.0 0.00 0.00 0.00 74 1013.5
20260905193357 60 120 0.0 0.0 0.00 0.00 0.00 73 1013.5
20260905192858 60 121 1.0 1.0 0.00 0.00 0.00 70 1013.9
20260905192357 60 119 2.0 2.0 0.00 0.00 0.00 66 1013.9
20260905191858 60 123 0.0 0.0 0.00 0.00 0.00 71 1013.5
20260905191357 60 123 2.0 1.0 0.00 0.00 0.00 68 1013.5
20260905190857 61 129 2.0 2.0 0.00 0.00 0.00 64 1013.5
20260905190359 61 130 1.0 1.0 0.00 0.00 0.00 66 1013.5
20260905185857 62 129 2.0 2.0 0.00 0.00 0.00 63 1013.5
20260905185357 62 239 1.0 1.0 0.00 0.00 0.00 66 1013.5
20260905184857 62 239 0.0 0.0 0.00 0.00 0.00 64 1013.5
20260905184358 62 203 2.0 2.0 0.00 0.00 0.00 67 1013.9
20260905183859 62 126 1.0 1.0 0.00 0.00 0.00 62 1013.5
20260905183357 63 127 0.0 0.0 0.00 0.00 0.00 63 1013.5
20260905182858 62 106 1.0 1.0 0.00 0.00 0.00 63 1013.5
20260905182357 63 86 0.0 0.0 0.00 0.00 0.00 62 1013.5
20260905181858 63 85 0.0 0.0 0.00 0.00 0.00 63 1013.9
20260905181357 64 85 0.0 0.0 0.00 0.00 0.00 62 1013.5
20260905180857 64 85 0.0 0.0 0.00 0.00 0.00 62 1013.5
20260905180357 64 85 0.0 0.0 0.00 0.00 0.00 61 1013.9
20260905175857 64 85 0.0 0.0 0.00 0.00 0.00 62 1013.5
20260905175357 64 355 1.0 1.0 0.00 0.00 0.00 61 1013.5
20260905174901 64 354 0.0 0.0 0.00 0.00 0.00 60 1013.5
20260905174357 65 354 0.0 0.0 0.00 0.00 0.00 60 1013.5
20260905173857 65 342 1.0 1.0 0.00 0.00 0.00 61 1013.5
20260905173357 66 346 3.0 3.0 0.00 0.00 0.00 59 1013.5
20260905172857 66 131 0.0 0.0 0.00 0.00 0.00 60 1013.5
20260905172357 66 130 0.0 0.0 0.00 0.00 0.00 59 1013.5
20260905171857 67 130 0.0 0.0 0.00 0.00 0.00 58 1013.5
20260905171357 67 161 1.0 1.0 0.00 0.00 0.00 58 1013.5
20260905170905 67 148 1.0 1.0 0.00 0.00 0.00 56 1013.2
20260905170357 68 148 1.0 1.0 0.00 0.00 0.00 56 1013.2
20260905165421 68 154 3.0 3.0 0.00 0.00 0.00 54 1013.2
20260905164900 69 163 2.0 2.0 0.00 0.00 0.00 53 1013.2
20260905164357 69 162 1.0 1.0 0.00 0.00 0.00 51 1013.2
20260905163857 69 143 1.0 1.0 0.00 0.00 0.00 50 1013.2
20260905163358 69 148 2.0 2.0 0.00 0.00 0.00 50 1012.9
20260905162900 70 150 3.0 2.0 0.00 0.00 0.00 49 1013.2
20260905162357 70 118 2.0 2.0 0.00 0.00 0.00 48 1012.9
20260905161857 70 135 2.0 2.0 0.00 0.00 0.00 47 1012.9
20260905161358 71 170 0.0 0.0 0.00 0.00 0.00 47 1013.2
20260905160857 71 168 1.0 2.0 0.00 0.00 0.00 46 1012.9
20260905160357 71 146 1.0 1.0 0.00 0.00 0.00 45 1012.9
20260905155858 72 161 2.0 2.0 0.00 0.00 0.00 43 1012.9
20260905155357 72 154 2.0 3.0 0.00 0.00 0.00 40 1012.9
20260905154857 73 144 1.0 2.0 0.00 0.00 0.00 38 1012.9
20260905154357 73 181 0.0 0.0 0.00 0.00 0.00 38 1013.2
20260905153857 74 172 2.0 2.0 0.00 0.00 0.00 36 1012.9
20260905153357 74 233 3.0 3.0 0.00 0.00 0.00 35 1012.9
20260905152857 75 150 1.0 1.0 0.00 0.00 0.00 34 1012.9
20260905152358 75 178 3.0 3.0 0.00 0.00 0.00 34 1012.9
20260905151857 76 155 3.0 3.0 0.00 0.00 0.00 33 1012.9
20260905151359 76 168 3.0 3.0 0.00 0.00 0.00 31 1012.9
20260905150858 77 160 3.0 3.0 0.00 0.00 0.00 30 1012.9
20260905150357 77 188 2.0 2.0 0.00 0.00 0.00 27 1012.9
20260905145858 78 119 3.0 3.0 0.00 0.00 0.00 22 1012.9
20260905145357 77 143 3.0 2.0 0.00 0.00 0.00 19 1012.9
20260905144858 78 143 6.0 7.0 0.00 0.00 0.00 19 1012.9
20260905144359 78 145 3.0 3.0 0.00 0.00 0.00 18 1012.9
20260905143857 78 150 4.0 5.0 0.00 0.00 0.00 18 1012.9
20260905143357 80 136 5.0 6.0 0.00 0.00 0.00 17 1012.9
20260905142858 79 177 3.0 3.0 0.00 0.00 0.00 17 1012.9
20260905142357 78 163 2.0 3.0 0.00 0.00 0.00 17 1012.9
20260905141858 78 169 6.0 8.0 0.00 0.00 0.00 16 1012.9
20260905141400 81 152 5.0 7.0 0.00 0.00 0.00 14 1012.9
20260905140857 80 194 1.0 1.0 0.00 0.00 0.00 16 1013.2
20260905140357 79 180 3.0 5.0 0.00 0.00 0.00 14 1012.9
20260905135857 79 150 3.0 5.0 0.00 0.00 0.00 12 1012.9
20260905135357 80 123 5.0 6.0 0.00 0.00 0.00 12 1012.9
20260905134857 81 149 5.0 6.0 0.00 0.00 0.00 13 1012.9
20260905134357 80 291 1.0 1.0 0.00 0.00 0.00 15 1012.9
20260905133858 79 152 7.0 8.0 0.00 0.00 0.00 15 1012.9
20260905133358 80 132 5.0 6.0 0.00 0.00 0.00 14 1012.9
20260905132857 79 174 4.0 5.0 0.00 0.00 0.00 14 1012.9
20260905132357 79 162 2.0 2.0 0.00 0.00 0.00 16 1012.9
20260905131858 80 135 6.0 7.0 0.00 0.00 0.00 14 1013.2
20260905131357 80 153 5.0 5.0 0.00 0.00 0.00 14 1012.9
20260905130857 79 221 2.0 2.0 0.00 0.00 0.00 15 1013.2
20260905130357 79 117 4.0 3.0 0.00 0.00 0.00 15 1012.9
20260905125857 79 149 4.0 5.0 0.00 0.00 0.00 15 1013.2
20260905125357 78 170 5.0 5.0 0.00 0.00 0.00 17 1013.2
20260905124857 79 133 5.0 6.0 0.00 0.00 0.00 16 1013.2
20260905124357 78 141 5.0 7.0 0.00 0.00 0.00 17 1012.9
20260905123857 79 117 8.0 9.0 0.00 0.00 0.00 17 1012.9
20260905123357 79 157 6.0 8.0 0.00 0.00 0.00 16 1013.2
20260905122857 79 130 2.0 2.0 0.00 0.00 0.00 17 1012.9
20260905122358 79 151 3.0 5.0 0.00 0.00 0.00 17 1012.9
20260905121858 80 113 5.0 6.0 0.00 0.00 0.00 16 1013.2
20260905121357 79 132 5.0 6.0 0.00 0.00 0.00 16 1013.2
20260905120857 79 145 8.0 10.0 0.00 0.00 0.00 17 1013.2